Regional Weather Roundup
Issued by NWS New Orleans/Baton Rouge, LA

Home | Current Version | Previous Version | Text Only | Print | Product List | Glossary On
Versions: 1 2 3 4 5 6 7 8 9 10 11 12 13 14 15 16 17 18 19 20 21 22 23 24 25 26 27 28 29 30 31 32 33 34 35 36 37 38 39 40 41 42 43 44 45 46 47 48 49 50
452
ASUS44 KLIX 011411
RWRLIX
NEW ORLEANS REGIONAL WEATHER ROUNDUP
NATIONAL WEATHER SERVICE NEW ORLEANS LA
900 AM CDT WED APR 01 2015

NOTE: "FAIR" INDICATES FEW OR NO CLOUDS BELOW 12,000 FEET WITH NO
      SIGNIFICANT WEATHER AND/OR OBSTRUCTIONS TO VISIBILITY.
      SKY/WX - SKY CONDITION AND SIGNIFICANT WEATHER.
      TMP - AIR TEMPERATURE.     DP    - DEWPOINT TEMPERATURE.
      RH  - RELATIVE HUMIDITY.   PRES  - PRESSURE.
      HI  - HEAT INDEX.          WCI   - WIND CHILL INDEX.

*  THESE STATIONS ARE NOT NWS OR FAA STATIONS AND ARE NOT UNDER
   NWS QUALITY CONTROL.

LAZ038-040-048-061>063-065>067-069-011500-
SOUTHEAST LOUISIANA

CITY           SKY/WX    TMP DP  RH WIND       PRES   REMARKS
N.O. AUDUBON   NOT AVBL
N.O. INTL ARPT MOSUNNY   71  66  84 S3        30.08R
N.O. LAKEFRONT MOSUNNY   73  66  78 CALM      30.09R
SLIDELL        MOSUNNY   70  67  90 CALM      30.09R
BATON ROUGE    PTSUNNY   67  65  93 E3        30.07R
BOOTHVILLE     CLOUDY    71  67  87 CALM      30.09R
BELLE CHASSE   PTSUNNY   71  66  84 CALM      30.08R
BOGALUSA*      FOG       65  63  91 CALM      30.11R VSB 1/4
GALLIANO*      CLOUDY    66  65  97 CALM      30.09R
NEW ROADS*     FOG       65  64  97 E3        30.07R VSB 3/4
GONZALES*        N/A     68  68 100 CALM      30.08R
HAMMOND*       MOSUNNY   66  63  88 CALM      30.10R
HOUMA*         MOSUNNY   66  66 100 CALM      30.08R
PORT FOURCHON* PTSUNNY   72  68  88 SE5       30.11R

$$

MSZ070-080>082-011500-
SOUTHERN MISSISSIPPI

CITY           SKY/WX    TMP DP  RH WIND       PRES   REMARKS
MCCOMB         CLOUDY    65  64  97 S3        30.09R FOG
GULFPORT       SUNNY     71  65  81 NE5       30.10R
BILOXI         SUNNY     69  65  89 E5        30.10R
PASCAGOULA     SUNNY     69  64  84 CALM      30.11S
STENNIS ARPT*  SUNNY     66  61  82 MISG      30.10R

$$

COASTAL OBSERVATIONS
LAKE AND NEARSHORE STATIONS

STATION/POSITION TIME  TEMP    WIND        PRES    WAVE
                       AIR SEA DIR/SP/G            HT/PER
                 (UTC) (F)     (DEG/KT/KT) (MB)    (FT/S)
PASCAGOULA       1300   67      40/  5/  6 1018.8
WAVELAND YACHT   1300   67 69  350/  3/  3 1018.5
GRAND ISLE       1300   70 71  150/  4/  5 1017.8
SOUTHWEST PASS   1300   64 55   80/  7/  7 1018.7
NEW CANAL        1300   69      CALM  /  2 1018.5
SHELL BEACH      1300   68 71  110/  4/  4 1018.3

OFFSHORE STATIONS

STATION/POSITION TIME  TEMP    WIND        PRES    WAVE
                       AIR SEA DIR/SP/G            HT/PER
                 (UTC) (F)     (DEG/KT/KT) (MB)    (FT/S)
64 S DAUPHIN ISL 1350   72 72   70/  4/  4 1019.8    2/ 4

$$




USA.gov is the U.S. government's official web portal to all federal, state and local government web resources and services.